Location: Dammartin
(48.9032°N, 1.6195°E)
Time: 19:08:44
(UTC+00:00)

BlueWalker 3 - Pass Details

Date: 24 April 2024
Orbit: 482 x 494 km, 53.2° (Epoch: 22 May)

Event Time Altitude Azimuth Distance (km) Brightness Sun altitude
Rises 19:43:23 0° 262° (W) 2,568 6.5 -7.3°
Reaches altitude 10° 19:45:35 10° 268° (W) 1,690 5.6 -7.6°
Maximum altitude 19:49:20 52° 346° (NNW) 620 2.7 -8.2°
Drops below altitude 10° 19:53:06 10° 64° (ENE) 1,701 4.3 -8.7°
Sets 19:55:20 0° 69° (ENE) 2,586 5.2 -9.0°
Enters shadow 19:55:22 - 69° (ENE) 2,598 5.2 -9.0°
